Terug naar catalogus

IRIDIUM 69

ActiefCommunicatiePO
NORAD 25319·PAYLOAD·🇺🇸 United States

Gelanceerd May 2, 1998 vanaf Taiyuan Satellite Launch Center

Loading…

Volgende Passages (komende 24 uur)

TLE

VersSource: Space-Track

Epoch: Sep 14, 2026, 11:09 UTC

1 25319U 98026A   26257.46470092  .00000215  00000-0  60148-4 0  9990
2 25319  86.3910 263.3445 0002096  23.5945 336.5350 14.41445175488495

Volg IRIDIUM 69 in realtime met AllMySat

Download on the App Store